Dewpoint
57 57 57 57 58 58 59 60 60 61 61 61 61 60 59 59 59 49 28 44 49 59 54 33 32 32 32 31 30 26 15 14 15 16 18 21 18 21 23 20 21 24 25 29 30
57 56 57 57 57 58 59 60 60 61 61 61 61 60 59 59 47 33 51 58 60 60 34 28 24 26 25 29 30 23 17 11 18 17 19 21 20 21 20 19 20 25 28 29 29
57 57 57 57 57 58 59 60 60 61 61 61 61 60 60 56 38 29 56 58 61 51 33 32 28 24 22 27 26 23 15 15 20 21 21 22 22 22 20 20 20 22 27 28 29
57 57 57 57 57 58 59 59 60 61 61 61 61 60 58 46 27 37 57 59 59 39 34 31 26 20 20 21 27 21 21 19 26 28 26 25 25 23 23 25 27 27 28 28 28
58 58 58 57 57 58 58 59 60 61 61 61 60 59 48 35 34 47 57 58 41 36 31 26 21 21 19 20 26 24 24 26 28 29 27 28 26 24 24 28 28 28 29 28 29
58 58 58 58 58 58 58 59 60 60 59 59 59 58 41 34 45 42 39 41 35 33 29 27 22 24 21 21 24 26 26 24 25 25 25 26 23 25 23 28 27 27 27 28 28
59 58 58 58 58 58 58 59 60 60 58 57 56 48 40 37 45 42 37 35 36 33 29 31 30 27 26 24 28 26 22 22 23 24 23 26 24 24 24 27 26 26 27 27 27
58 58 58 58 58 58 58 59 58 59 57 58 57 43 37 38 46 42 38 35 35 34 33 34 33 30 28 28 24 22 23 22 25 24 25 25 22 25 25 25 25 25 26 27 27
57 57 58 58 58 58 58 58 58 57 56 57 48 41 35 46 41 43 39 33 34 34 34 32 34 29 28 22 23 24 20 23 23 24 24 24 23 25 25 24 25 25 26 27 26
56 57 57 57 58 58 58 57 59 55 52 47 42 39 37 33 39 40 37 35 33 34 32 32 29 26 26 23 20 22 23 23 23 23 24 23 23 24 23 23 24 25 27 27 26
56 57 57 57 58 58 57 55 47 47 48 38 39 36 34 33 37 38 36 33 33 31 29 31 26 25 25 25 23 23 23 22 23 23 23 23 23 22 24 23 23 24 26 27 26
56 57 57 57 58 58 56 47 46 45 41 44 43 39 33 33 30 36 35 31 31 29 29 28 26 26 26 27 25 24 23 23 25 23 23 23 23 23 23 24 24 24 26 27 26
56 57 57 57 58 57 52 50 47 44 40 38 43 41 37 32 30 33 34 32 30 29 28 26 26 26 27 25 24 24 24 24 23 24 24 23 23 25 25 25 25 26 27 27 26
56 56 56 57 55 52 51 52 53 46 33 29 39 42 37 34 32 34 34 29 26 26 27 26 26 25 26 24 24 24 25 24 24 23 24 25 22 26 27 28 28 29 28 27 26
56 56 55 57 48 50 49 53 54 48 24 31 39 39 36 35 34 32 33 30 26 26 26 25 25 25 25 25 25 25 26 26 27 27 27 27 24 26 28 26 27 28 29 27 26
56 56 55 56 55 52 54 54 51 35 24 34 35 36 35 36 33 31 30 31 31 27 27 28 30 27 27 28 26 29 28 26 27 28 26 28 27 25 25 25 27 28 28 27 26
56 56 55 55 50 51 52 50 38 28 28 29 33 34 35 34 32 31 29 28 28 26 27 29 29 29 29 28 27 28 28 28 26 26 26 24 27 26 25 25 26 28 27 27 26
56 56 55 54 54 49 51 45 33 28 27 34 33 33 34 33 32 31 30 28 29 30 28 30 29 31 29 31 29 27 28 29 27 26 25 24 22 23 27 27 28 28 27 26 25
56 55 54 55 55 51 49 36 32 27 26 29 32 32 33 32 32 30 31 30 31 31 29 28 29 30 29 29 31 27 27 30 28 29 27 23 24 25 28 27 27 28 27 26 25
54 53 52 55 56 51 44 37 35 33 29 31 28 31 31 31 30 30 31 32 32 32 33 30 28 29 28 27 28 27 28 26 26 30 26 21 23 23 28 26 26 28 28 26 26
53 49 54 56 54 47 39 38 37 36 33 32 31 29 29 30 31 29 31 31 32 32 32 31 30 28 27 26 26 26 25 26 26 27 27 24 22 25 26 26 26 27 29 28 27
51 45 55 56 44 45 40 41 39 37 38 36 34 33 31 30 30 30 30 30 30 32 30 33 31 31 26 28 28 27 26 26 26 26 26 26 25 25 27 27 29 27 29 29 28
47 48 55 53 40 41 42 41 40 40 39 37 35 35 33 31 29 30 31 31 30 32 32 33 32 34 32 29 29 26 27 27 26 31 31 29 26 26 27 27 28 28 29 30 29
47 42 48 50 46 42 40 39 39 42 40 40 37 37 35 34 31 31 32 32 32 31 39 35 34 34 30 29 28 26 26 27 26 27 27 28 27 23 25 26 27 29 29 29 30
46 41 43 42 44 43 41 38 38 38 41 40 39 37 37 34 34 32 34 33 34 35 34 32 34 34 34 34 32 30 28 27 26 26 27 27 27 29 26 26 26 28 30 29 29
38 39 41 39 40 43 41 39 37 38 39 39 38 39 38 37 37 36 34 34 33 33 32 35 33 34 34 34 33 31 31 30 28 27 27 27 27 29 26 27 27 27 29 29 29
41 44 40 36 38 38 40 41 40 39 39 40 40 39 38 39 39 39 38 39 38 35 32 35 34 34 32 35 34 29 32 30 30 28 28 26 29 33 30 28 28 29 29 29 29
Lifted_Index
9 8 8 8 8 7 7 7 6 6 6 6 6 7 7 8 7 8 8 8 8 8 9 9 9 8 8 7 7 7 5 4 4 5 6 6 7 7 7 7 7 7 8 8 8
8 8 8 8 8 7 7 7 6 6 6 6 6 7 7 8 7 8 8 8 8 8 9 9 9 8 8 7 7 6 5 5 5 6 6 6 7 7 7 7 7 7 8 8 8
8 8 8 8 8 7 7 7 6 6 6 6 6 7 7 7 7 8 9 8 8 9 9 9 9 8 7 7 7 6 6 6 6 7 7 7 7 7 7 7 7 7 7 8 8
8 8 8 8 8 7 7 7 6 6 6 6 6 7 7 7 7 8 9 8 9 9 9 9 8 8 7 7 7 6 6 7 7 7 7 7 7 7 7 7 7 7 8 8 8
7 8 8 8 8 7 7 7 6 6 6 6 7 7 7 7 7 8 8 8 9 9 9 9 8 8 7 7 7 7 7 7 8 8 7 7 7 7 7 7 7 8 8 8 8
7 7 8 8 7 7 7 7 6 6 6 7 7 7 7 7 7 7 8 8 9 9 9 9 8 8 7 7 7 7 7 7 7 7 7 7 6 6 7 7 7 8 8 8 8
6 7 7 7 7 7 7 7 6 6 7 7 7 7 7 7 7 7 7 8 8 8 8 9 8 7 7 7 7 7 6 6 6 6 6 6 6 6 6 7 7 7 8 8 8
6 6 7 7 7 7 7 6 6 6 7 7 7 7 7 7 7 7 7 7 8 8 8 9 8 7 7 7 6 6 5 5 5 6 6 6 5 6 6 7 7 7 8 8 8
6 6 7 7 7 7 7 6 6 6 6 7 7 7 7 7 7 7 7 7 7 8 8 8 8 7 6 6 5 5 5 4 5 5 6 5 5 6 7 7 7 7 7 8 8
7 7 7 7 7 6 6 6 5 6 6 6 6 6 7 7 7 7 7 7 7 7 7 7 7 6 6 5 5 4 4 4 5 5 5 5 5 6 7 7 7 7 7 8 8
6 6 6 7 6 6 5 5 5 5 6 6 6 6 6 7 7 7 7 7 7 6 6 6 6 5 5 5 5 5 5 4 5 5 5 5 5 6 7 7 7 7 8 8 8
5 6 6 6 6 6 5 5 5 5 5 5 6 6 6 6 6 7 7 7 6 6 6 6 5 5 5 5 5 5 4 4 5 5 5 5 6 6 6 7 7 7 8 8 8
4 5 5 6 6 5 5 4 4 5 5 5 6 6 6 6 6 6 6 6 6 5 5 5 5 5 5 4 4 4 4 4 4 5 5 5 5 5 6 6 7 7 7 8 8
3 4 5 5 5 5 4 4 3 4 4 5 6 6 6 6 6 6 6 6 5 5 5 5 5 4 4 4 4 4 4 4 4 4 5 5 4 5 5 5 6 6 7 7 8
2 4 5 5 5 4 4 3 2 2 4 5 7 7 6 6 6 6 6 6 6 5 5 5 5 4 4 3 4 4 4 4 4 4 4 4 4 4 5 5 5 6 6 7 7
2 4 5 5 4 4 3 3 2 2 4 6 7 7 6 6 6 6 6 6 6 5 5 5 5 4 4 3 3 4 4 3 3 3 3 3 4 4 5 5 5 5 6 7 7
1 3 4 4 4 3 3 3 3 4 5 7 7 7 6 5 5 5 5 5 5 4 4 4 4 4 3 3 3 3 3 2 2 2 2 3 4 4 5 5 5 5 6 6 7
1 2 4 4 3 3 3 3 3 5 6 7 6 6 6 5 5 4 4 3 3 3 3 2 2 3 3 3 3 3 3 2 1 1 2 3 4 5 5 5 5 5 6 6 6
1 2 3 4 4 3 3 2 3 5 6 6 6 6 5 5 4 3 3 3 3 3 2 2 2 2 2 3 3 3 3 2 2 1 2 3 4 5 5 5 5 5 5 5 6
1 1 3 4 4 3 2 2 3 5 5 5 5 5 5 5 4 3 3 3 2 2 2 2 2 2 3 3 3 3 3 3 2 1 1 2 4 5 5 5 5 5 5 5 5
1 1 2 3 3 3 2 2 4 5 4 4 4 5 4 4 3 3 3 3 2 2 2 2 2 2 3 3 3 3 3 3 2 2 1 2 3 5 5 5 5 5 5 5 5
1 2 2 2 3 3 3 3 4 5 4 4 4 4 4 3 3 3 3 2 2 2 2 2 2 2 3 4 4 3 3 3 3 3 2 2 3 5 5 5 5 5 5 5 6
1 1 2 2 2 2 3 4 4 4 4 4 5 4 3 3 3 3 3 3 2 2 2 2 2 2 3 4 4 3 3 3 3 3 3 3 3 4 5 5 5 5 5 6 6
1 1 1 1 2 2 3 3 4 4 4 4 4 4 3 3 3 3 3 3 3 2 2 2 2 2 3 3 3 3 3 2 2 3 3 3 3 4 4 4 5 5 5 6 6
1 1 1 1 2 2 2 3 3 3 4 4 4 3 3 3 3 3 3 3 2 2 2 2 2 2 2 2 2 2 2 3 3 3 3 3 3 3 4 4 4 5 6 6 6
2 2 3 2 2 2 2 3 3 3 3 3 4 3 3 3 3 2 2 2 2 2 2 2 2 2 2 2 2 2 3 3 3 3 3 3 3 3 3 4 4 5 5 6 5
3 3 3 3 3 2 2 3 3 3 3 3 3 3 3 3 3 2 2 2 2 2 2 2 2 2 2 2 1 2 3 3 3 3 3 3 3 3 3 4 4 5 5 5 5